EST,Max TemperatureF,Mean TemperatureF,Min TemperatureF,Max Dew PointF,MeanDew PointF,Min DewpointF,Max Humidity, Mean Humidity, Min Humidity, Max Sea Level PressureIn, Mean Sea Level PressureIn, Min Sea Level PressureIn, Max VisibilityMiles, Mean VisibilityMiles, Min VisibilityMiles, Max Wind SpeedMPH, Mean Wind SpeedMPH, Max Gust SpeedMPH,PrecipitationIn, CloudCover, Events, WindDirDegrees
2012-11-1,61,48,37,42,37,34,93,69,38,29.88,29.81,29.74,10,10,10,13,3,21,0.00,1,,272
2012-11-2,64,52,39,43,38,32,89,63,38,29.98,29.90,29.82,10,10,10,16,5,26,0.00,1,,272
2012-11-3,57,47,37,39,36,33,93,70,39,30.10,30.06,29.99,10,10,8,12,6,17,0.00,0,,312
2012-11-4,71,54,39,54,43,36,93,74,56,30.11,30.01,29.92,10,10,5,13,5,,0.08,2,Rain-Thunderstorm,34
2012-11-5,55,48,41,44,38,35,93,71,45,30.14,30.05,29.98,10,10,10,13,7,23,0.00,1,,10
2012-11-6,46,42,39,45,41,35,96,88,74,30.11,29.96,29.85,10,9,5,12,8,21,0.21,6,Rain,357
2012-11-7,51,45,39,43,40,36,96,84,66,29.92,29.85,29.79,10,9,6,12,9,20,0.02,7,Rain,337
2012-11-8,57,46,36,35,31,26,93,65,30,30.09,30.02,29.95,10,10,7,12,6,17,0.00,2,,305
2012-11-9,59,47,35,40,30,26,89,55,30,30.28,30.22,30.10,10,10,10,9,6,,0.00,0,,343
2012-11-10,63,50,37,45,41,35,96,77,46,30.43,30.37,30.30,10,10,7,7,2,,0.00,0,,199
2012-11-11,70,56,42,55,47,42,100,85,51,30.52,30.46,30.42,10,7,1,7,1,,0.00,3,,65
2012-11-12,72,62,52,63,58,51,97,86,68,30.43,30.34,30.25,10,9,2,12,4,22,0.01,4,Rain,133
2012-11-13,69,58,46,64,55,42,100,92,78,30.35,30.25,30.19,10,7,0,15,4,22,0.03,4,Fog-Rain,4
2012-11-14,53,48,44,43,41,38,93,77,66,30.41,30.36,30.32,10,10,9,17,11,25,0.01,6,,11
2012-11-15,55,49,43,48,44,38,94,83,72,30.31,30.23,30.18,10,9,5,12,8,21,0.47,7,Rain,359
2012-11-16,59,52,43,48,43,34,97,78,53,30.35,30.26,30.19,10,10,10,14,9,28,0.01,4,,9
2012-11-17,57,48,39,47,43,36,89,77,67,30.39,30.36,30.34,10,10,10,17,10,29,0.00,1,,12
2012-11-18,59,56,53,54,52,48,94,90,75,30.31,30.24,30.19,10,6,2,22,16,34,0.41,8,Rain,17
2012-11-19,57,54,51,53,51,48,97,88,81,30.19,30.14,30.09,10,9,5,20,15,32,0.05,8,Rain,7
2012-11-20,57,54,50,50,48,43,96,86,74,30.11,30.08,30.04,10,8,2,14,9,20,0.00,8,,354
2012-11-21,60,53,45,47,44,41,89,76,57,30.13,30.08,30.04,10,10,10,15,9,22,0.00,4,,3
2012-11-22,61,51,41,46,43,37,89,76,58,30.17,30.13,30.08,10,10,10,16,8,26,0.00,3,,355
2012-11-23,62,50,39,49,42,33,93,73,35,30.15,30.03,29.88,10,10,7,9,6,,0.00,0,,270
2012-11-24,54,46,37,46,30,20,80,53,37,30.13,29.99,29.87,10,10,10,10,6,23,0.00,0,,323
2012-11-25,48,38,28,33,26,20,89,63,43,30.22,30.15,30.10,10,10,10,8,4,,0.00,0,,272
2012-11-26,60,47,34,44,38,31,100,74,33,30.25,30.20,30.14,10,10,10,8,3,,0.00,0,,238
2012-11-27,59,48,37,49,44,36,97,83,51,30.23,30.18,30.11,10,9,5,8,2,,0.11,5,Rain,230
2012-11-28,53,42,30,45,36,28,93,77,45,30.41,30.30,30.19,10,8,4,13,7,20,0.01,3,Rain,350
2012-11-29,53,40,28,35,30,26,96,76,35,30.51,30.45,30.41,10,9,5,7,1,,0.00,0,,7
2012-11-30,57,44,30,41,35,28,100,81,42,30.44,30.39,30.35,10,8,6,5,1,,0.00,0,,147